Location: Newark
(51.3000°N, 4.9833°E)
Time: 12:25:03
(UTC+00:00)

ISS - Visible Passes

Search period start: 22 October 2019 00:00
Search period end: 01 November 2019 00:00
Orbit: 411 x 421 km, 51.6° (Epoch: 22 October)

Date Brightness Start Highest point End Pass type
(mag) Time Alt. Az. Time Alt. Az. Time Alt. Az.
23 Oct -0.5 05:38:43 10° SSE 05:39:59 12° SE 05:41:17 10° ESE visible
25 Oct -1.4 05:36:24 10° SSW 05:39:09 23° SE 05:41:54 10° E visible
26 Oct -1.0 04:48:31 10° S 04:50:44 16° SE 04:52:56 10° E visible
27 Oct -0.8 04:01:23 10° SSE 04:02:21 11° SE 04:03:19 10° ESE visible
27 Oct -2.6 05:35:12 10° SW 05:38:25 43° SSE 05:41:39 10° E visible
28 Oct -2.2 04:47:33 14° SSW 04:49:53 31° SSE 04:52:55 10° E visible
29 Oct -1.7 04:01:15 22° SSE 04:01:24 22° SE 04:04:05 10° E visible
29 Oct -3.6 05:34:25 10° WSW 05:37:46 72° SSE 05:41:08 10° E visible
30 Oct -0.4 03:14:51 11° ESE 03:14:51 11° ESE 03:15:01 10° ESE visible
30 Oct -3.3 04:47:44 30° SW 04:49:09 56° SSE 04:52:28 10° E visible
31 Oct -2.3 04:01:14 36° ESE 04:01:14 36° ESE 04:03:46 10° E visible
31 Oct -3.8 05:34:08 12° W 05:37:10 87° N 05:40:33 10° E visible
